Вернуться в каталог

STARLINK-34888

АктивенСвязьVLEO
NORAD 65471·PAYLOAD·🇺🇸 United States

Запущен Sep 3, 2025 с Cape Canaveral Space Force Station

Loading…

Ближайшие Пролёты (ближайшие 24 часа)

TLE

СвежийSource: CelesTrak SupGP

Эпоха: Sep 15, 2026, 02:52 UTC

1 65471C 25195P   26258.11993056 -.00008463  00000+0 -25017-3 0  2580
2 65471  53.1567  95.0125 0001114  86.9710 235.9017 15.34379965    12

Отслеживайте STARLINK-34888 в реальном времени с AllMySat

Download on the App Store